Location: Wyalusing
(42.9440°N, 91.1410°W)
Time: 23:35:25
(UTC-06:00)

N. Korean satellite - Visible Passes

Search period start: 18 February 2018 00:00
Search period end: 28 February 2018 00:00
Orbit: 459 x 514 km, 97.2° (Epoch: 18 February)

Date Brightness Start Highest point End Pass type
(mag) Time Alt. Az. Time Alt. Az. Time Alt. Az.
18 Feb 10.1 19:01:46 10° WSW 19:03:30 13° W 19:05:14 10° WNW visible
19 Feb 8.1 06:25:50 10° NNE 06:29:20 43° E 06:32:51 10° S visible
19 Feb 9.1 18:36:41 10° SSW 18:39:35 25° W 18:42:32 10° NW visible
20 Feb 9.6 06:02:34 10° NE 06:05:29 22° E 06:08:27 10° SSE visible
20 Feb 7.5 18:12:24 10° S 18:15:45 52° W 18:19:11 10° NNW visible
21 Feb 10.4 05:40:09 10° ENE 05:41:36 12° E 05:43:02 10° ESE visible
22 Feb 10.1 19:00:09 10° SW 19:02:00 14° W 19:03:52 10° WNW visible
23 Feb 9.0 18:35:07 10° SSW 18:38:04 26° W 18:41:05 10° NW visible
24 Feb 9.7 06:01:05 10° NE 06:04:01 22° E 06:06:57 10° SSE visible
25 Feb 10.5 05:38:43 10° ENE 05:40:05 12° E 05:41:27 10° ESE visible
26 Feb 10.0 18:58:28 10° SW 19:00:26 14° W 19:02:26 10° WNW visible
27 Feb 9.0 18:33:29 10° SSW 18:36:30 28° W 18:39:35 10° NW visible
